Station Historical Data
Daily Summary for January 1, 2017 Units:  English    Metric   Both
« Previous Day
Next Day »
Daily Weekly Monthly Yearly Custom
  High: Low: Average:
Temperature: 37.9 °F 25.4 °F 32 °F
Dew Point: 29.3 °F 20.8 °F 24.6 °F
Humidity: 90% 62% 74%
Wind Speed: 14.0mph 0.0mph 4.1mph
Wind Gust: 20.0mph - -
Wind- - WSW
Pressure: 30.35 in 29.80 in -
Precipitation: 0.00 in    
Historical Graphs
 
 
Tabular Data for January 1, 2017
Time Temperature Dew Point Pressure Wind Wind Speed Wind Gust Humidity Rainfall Rate (Hourly)
00:04 34.6 °F 26.8 °F 29.80 in WSW 5.0 mph 18.0 mph 73% 0.00 in
00:09 34.5 °F 26.7 °F 29.80 in West 8.0 mph 16.0 mph 73% 0.00 in
00:14 34.3 °F 26.2 °F 29.80 in WNW 4.0 mph 17.0 mph 72% 0.00 in
00:19 34.3 °F 26.2 °F 29.80 in West 8.0 mph 18.0 mph 72% 0.00 in
00:24 34.2 °F 26.4 °F 29.81 in West 8.0 mph 18.0 mph 73% 0.00 in
00:29 34.0 °F 26.3 °F 29.81 in WSW 5.0 mph 12.0 mph 73% 0.00 in
00:34 33.7 °F 26.3 °F 29.82 in West 5.0 mph 12.0 mph 74% 0.00 in
00:39 33.6 °F 25.9 °F 29.82 in West 12.0 mph 14.0 mph 73% 0.00 in
00:44 33.6 °F 25.5 °F 29.83 in West 4.0 mph 15.0 mph 72% 0.00 in
00:49 33.7 °F 25.3 °F 29.84 in WSW 3.0 mph 11.0 mph 71% 0.00 in
00:54 33.7 °F 25.6 °F 29.84 in West 5.0 mph 11.0 mph 72% 0.00 in
00:59 33.7 °F 25.6 °F 29.85 in West 5.0 mph 11.0 mph 72% 0.00 in
01:05 33.8 °F 25.4 °F 29.85 in SW 4.0 mph 13.0 mph 71% 0.00 in
01:10 33.7 °F 25.3 °F 29.86 in WSW 7.0 mph 13.0 mph 71% 0.00 in
01:15 33.8 °F 24.4 °F 29.86 in SW 12.0 mph 18.0 mph 68% 0.00 in
01:20 33.8 °F 24.4 °F 29.86 in WNW 6.0 mph 14.0 mph 68% 0.00 in
01:25 33.8 °F 23.6 °F 29.87 in West 5.0 mph 20.0 mph 66% 0.00 in
01:30 33.6 °F 23.8 °F 29.87 in WSW 6.0 mph 15.0 mph 67% 0.00 in
01:35 33.5 °F 23.7 °F 29.88 in West 4.0 mph 15.0 mph 67% 0.00 in
01:40 33.4 °F 23.6 °F 29.88 in WNW 6.0 mph 14.0 mph 67% 0.00 in
01:45 33.2 °F 23.4 °F 29.88 in West 7.0 mph 15.0 mph 67% 0.00 in
01:50 33.2 °F 23.4 °F 29.89 in West 8.0 mph 17.0 mph 67% 0.00 in
01:55 33.0 °F 23.6 °F 29.90 in West 8.0 mph 17.0 mph 68% 0.00 in
02:00 33.0 °F 23.6 °F 29.90 in West 7.0 mph 14.0 mph 68% 0.00 in
02:05 33.0 °F 23.2 °F 29.91 in WSW 6.0 mph 14.0 mph 67% 0.00 in
02:10 33.0 °F 23.2 °F 29.91 in West 8.0 mph 16.0 mph 67% 0.00 in
02:15 32.7 °F 22.9 °F 29.92 in West 8.0 mph 16.0 mph 67% 0.00 in
02:20 32.6 °F 22.5 °F 29.92 in West 8.0 mph 17.0 mph 66% 0.00 in
02:25 32.5 °F 22.4 °F 29.92 in WNW 14.0 mph 18.0 mph 66% 0.00 in
02:30 32.5 °F 22.4 °F 29.93 in West 8.0 mph 16.0 mph 66% 0.00 in
02:35 32.5 °F 22.8 °F 29.93 in West 8.0 mph 12.0 mph 67% 0.00 in
02:40 32.4 °F 22.7 °F 29.94 in West 6.0 mph 13.0 mph 67% 0.00 in
02:45 32.4 °F 22.7 °F 29.94 in West 6.0 mph 13.0 mph 67% 0.00 in
02:50 32.4 °F 22.7 °F 29.95 in West 6.0 mph 13.0 mph 67% 0.00 in
02:55 32.3 °F 22.6 °F 29.95 in West 6.0 mph 16.0 mph 67% 0.00 in
03:00 32.2 °F 22.5 °F 29.95 in West 7.0 mph 16.0 mph 67% 0.00 in
03:05 32.0 °F 22.3 °F 29.95 in West 6.0 mph 16.0 mph 67% 0.00 in
03:10 31.8 °F 22.4 °F 29.96 in West 5.0 mph 15.0 mph 68% 0.00 in
03:15 31.7 °F 22.3 °F 29.96 in SW 7.0 mph 13.0 mph 68% 0.00 in
03:20 31.5 °F 22.1 °F 29.96 in West 6.0 mph 14.0 mph 68% 0.00 in
03:25 31.4 °F 22.4 °F 29.96 in West 6.0 mph 14.0 mph 69% 0.00 in
03:30 31.2 °F 22.5 °F 29.97 in WNW 5.0 mph 10.0 mph 70% 0.00 in
03:35 31.2 °F 22.5 °F 29.97 in WSW 7.0 mph 9.0 mph 70% 0.00 in
03:40 31.1 °F 22.8 °F 29.98 in SSW 2.0 mph 11.0 mph 71% 0.00 in
03:45 31.0 °F 22.7 °F 29.98 in WSW 5.0 mph 12.0 mph 71% 0.00 in
03:50 31.0 °F 22.4 °F 29.99 in WSW 5.0 mph 11.0 mph 70% 0.00 in
03:55 31.1 °F 21.8 °F 30.00 in West 6.0 mph 15.0 mph 68% 0.00 in
04:00 31.2 °F 21.9 °F 30.00 in SW 7.0 mph 13.0 mph 68% 0.00 in
04:05 31.2 °F 21.9 °F 30.00 in WSW 7.0 mph 13.0 mph 68% 0.00 in
04:10 31.2 °F 21.9 °F 30.01 in WSW 7.0 mph 13.0 mph 68% 0.00 in
04:15 31.2 °F 21.9 °F 30.01 in West 7.0 mph 14.0 mph 68% 0.00 in
04:20 31.1 °F 21.8 °F 30.01 in SW 8.0 mph 14.0 mph 68% 0.00 in
04:25 31.1 °F 21.8 °F 30.00 in WSW 6.0 mph 14.0 mph 68% 0.00 in
04:30 31.0 °F 21.7 °F 30.01 in WSW 6.0 mph 12.0 mph 68% 0.00 in
04:34 30.9 °F 21.6 °F 30.01 in SW 5.0 mph 11.0 mph 68% 0.00 in
04:40 30.8 °F 21.5 °F 30.01 in WSW 5.0 mph 10.0 mph 68% 0.00 in
04:45 30.8 °F 21.8 °F 30.01 in WSW 5.0 mph 12.0 mph 69% 0.00 in
04:50 30.8 °F 21.8 °F 30.01 in West 4.0 mph 12.0 mph 69% 0.00 in
04:54 30.8 °F 21.8 °F 30.01 in WSW 6.0 mph 12.0 mph 69% 0.00 in
05:00 30.8 °F 21.8 °F 30.01 in WSW 6.0 mph 13.0 mph 69% 0.00 in
05:05 30.7 °F 21.7 °F 30.01 in West 8.0 mph 11.0 mph 69% 0.00 in
05:10 30.7 °F 21.7 °F 30.01 in WSW 5.0 mph 11.0 mph 69% 0.00 in
05:15 30.7 °F 21.7 °F 30.02 in WSW 7.0 mph 10.0 mph 69% 0.00 in
05:20 30.7 °F 21.7 °F 30.02 in WSW 6.0 mph 12.0 mph 69% 0.00 in
05:25 30.7 °F 21.4 °F 30.02 in West 7.0 mph 13.0 mph 68% 0.00 in
05:29 30.7 °F 21.7 °F 30.02 in WSW 6.0 mph 13.0 mph 69% 0.00 in
05:34 30.7 °F 21.7 °F 30.02 in WSW 4.0 mph 9.0 mph 69% 0.00 in
05:39 30.6 °F 22.0 °F 30.02 in West 5.0 mph 10.0 mph 70% 0.00 in
05:45 30.6 °F 22.3 °F 30.03 in WSW 12.0 mph 12.0 mph 71% 0.00 in
05:50 30.7 °F 22.4 °F 30.03 in West 2.0 mph 11.0 mph 71% 0.00 in
05:55 30.7 °F 22.4 °F 30.04 in West 6.0 mph 10.0 mph 71% 0.00 in
06:00 30.8 °F 22.2 °F 30.04 in WSW 5.0 mph 13.0 mph 70% 0.00 in
06:04 30.8 °F 22.2 °F 30.04 in WSW 7.0 mph 13.0 mph 70% 0.00 in
06:10 30.7 °F 21.7 °F 30.04 in West 5.0 mph 9.0 mph 69% 0.00 in
06:15 30.6 °F 21.6 °F 30.05 in West 5.0 mph 10.0 mph 69% 0.00 in
06:20 30.6 °F 21.6 °F 30.05 in West 6.0 mph 10.0 mph 69% 0.00 in
06:25 30.6 °F 21.6 °F 30.06 in West 6.0 mph 14.0 mph 69% 0.00 in
06:30 30.6 °F 21.6 °F 30.07 in WSW 3.0 mph 12.0 mph 69% 0.00 in
06:34 30.7 °F 21.7 °F 30.07 in WSW 8.0 mph 13.0 mph 69% 0.00 in
06:39 30.9 °F 21.9 °F 30.08 in WNW 4.0 mph 12.0 mph 69% 0.00 in
06:44 31.0 °F 22.0 °F 30.08 in West 5.0 mph 11.0 mph 69% 0.00 in
06:50 31.0 °F 22.0 °F 30.08 in WSW 5.0 mph 13.0 mph 69% 0.00 in
06:55 31.0 °F 22.0 °F 30.08 in West 10.0 mph 15.0 mph 69% 0.00 in
07:00 31.2 °F 22.2 °F 30.08 in WSW 5.0 mph 14.0 mph 69% 0.00 in
07:05 31.2 °F 22.2 °F 30.08 in SW 5.0 mph 11.0 mph 69% 0.00 in
07:09 31.1 °F 22.1 °F 30.09 in WSW 5.0 mph 11.0 mph 69% 0.00 in
07:15 31.1 °F 22.1 °F 30.09 in WSW 5.0 mph 11.0 mph 69% 0.00 in
07:20 31.0 °F 22.0 °F 30.09 in WSW 5.0 mph 11.0 mph 69% 0.00 in
07:25 31.0 °F 22.4 °F 30.10 in WSW 5.0 mph 11.0 mph 70% 0.00 in
07:30 30.9 °F 22.3 °F 30.10 in WSW 5.0 mph 13.0 mph 70% 0.00 in
07:35 30.8 °F 22.2 °F 30.10 in WSW 5.0 mph 13.0 mph 70% 0.00 in
07:39 30.8 °F 22.2 °F 30.10 in WSW 5.0 mph 10.0 mph 70% 0.00 in
07:44 30.8 °F 22.5 °F 30.11 in WSW 5.0 mph 8.0 mph 71% 0.00 in
07:49 30.7 °F 22.4 °F 30.11 in WSW 3.0 mph 11.0 mph 71% 0.00 in
07:54 30.7 °F 22.4 °F 30.11 in WSW 8.0 mph 9.0 mph 71% 0.00 in
07:59 30.7 °F 22.4 °F 30.12 in West 3.0 mph 10.0 mph 71% 0.00 in
08:04 30.7 °F 22.7 °F 30.12 in West 4.0 mph 10.0 mph 72% 0.00 in
08:09 30.7 °F 22.7 °F 30.12 in WNW 5.0 mph 10.0 mph 72% 0.00 in
08:14 30.8 °F 22.8 °F 30.13 in WSW 5.0 mph 11.0 mph 72% 0.00 in
08:20 30.8 °F 22.8 °F 30.13 in WSW 3.0 mph 9.0 mph 72% 0.00 in
08:25 30.9 °F 22.9 °F 30.14 in West 5.0 mph 9.0 mph 72% 0.00 in
08:30 31.0 °F 23.0 °F 30.14 in West 4.0 mph 14.0 mph 72% 0.00 in
08:35 31.0 °F 23.0 °F 30.14 in West 5.0 mph 14.0 mph 72% 0.00 in
08:40 31.1 °F 22.8 °F 30.15 in West 5.0 mph 12.0 mph 71% 0.00 in
08:44 31.2 °F 22.9 °F 30.15 in West 4.0 mph 12.0 mph 71% 0.00 in
08:50 31.4 °F 22.7 °F 30.15 in WSW 4.0 mph 10.0 mph 70% 0.00 in
08:54 31.5 °F 22.8 °F 30.15 in WNW 6.0 mph 8.0 mph 70% 0.00 in
08:59 31.6 °F 22.6 °F 30.15 in WNW 3.0 mph 10.0 mph 69% 0.00 in
09:04 31.7 °F 22.7 °F 30.16 in West 10.0 mph 10.0 mph 69% 0.00 in
09:09 32.0 °F 22.6 °F 30.16 in WSW 3.0 mph 10.0 mph 68% 0.00 in
09:14 32.3 °F 22.2 °F 30.16 in WSW 5.0 mph 10.0 mph 66% 0.00 in
09:19 32.5 °F 22.8 °F 30.16 in West 5.0 mph 11.0 mph 67% 0.00 in
09:24 32.8 °F 22.7 °F 30.17 in West 4.0 mph 11.0 mph 66% 0.00 in
09:30 32.6 °F 22.5 °F 30.17 in West 5.0 mph 9.0 mph 66% 0.00 in
09:35 32.8 °F 22.7 °F 30.17 in West 4.0 mph 9.0 mph 66% 0.00 in
09:40 33.1 °F 22.2 °F 30.18 in West 4.0 mph 7.0 mph 64% 0.00 in
09:45 33.5 °F 22.6 °F 30.18 in WSW 4.0 mph 8.0 mph 64% 0.00 in
09:49 33.8 °F 22.5 °F 30.18 in WSW 10.0 mph 11.0 mph 63% 0.00 in
09:54 34.0 °F 22.3 °F 30.19 in West 3.0 mph 12.0 mph 62% 0.00 in
09:59 33.8 °F 22.1 °F 30.19 in SW 6.0 mph 9.0 mph 62% 0.00 in
10:04 34.6 °F 22.9 °F 30.19 in West 2.0 mph 7.0 mph 62% 0.00 in
10:09 34.6 °F 23.3 °F 30.20 in WSW 7.0 mph 12.0 mph 63% 0.00 in
10:14 34.8 °F 23.9 °F 30.20 in WSW 5.0 mph 9.0 mph 64% 0.00 in
10:19 35.1 °F 24.1 °F 30.20 in WSW 5.0 mph 11.0 mph 64% 0.00 in
10:24 35.1 °F 24.5 °F 30.20 in WSW 5.0 mph 11.0 mph 65% 0.00 in
10:29 35.2 °F 24.6 °F 30.21 in WSW 5.0 mph 11.0 mph 65% 0.00 in
10:34 35.3 °F 24.7 °F 30.21 in West 5.0 mph 10.0 mph 65% 0.00 in
10:40 35.2 °F 25.0 °F 30.21 in WSW 4.0 mph 12.0 mph 66% 0.00 in
10:44 34.6 °F 25.1 °F 30.21 in WSW 3.0 mph 10.0 mph 68% 0.00 in
10:49 34.7 °F 25.6 °F 30.21 in WNW 4.0 mph 5.0 mph 69% 0.00 in
10:54 34.6 °F 25.1 °F 30.21 in SW 6.0 mph 10.0 mph 68% 0.00 in
10:59 34.6 °F 25.5 °F 30.21 in WSW 6.0 mph 12.0 mph 69% 0.00 in
11:04 34.6 °F 25.5 °F 30.21 in West 4.0 mph 11.0 mph 69% 0.00 in
11:09 34.4 °F 25.6 °F 30.20 in West 6.0 mph 11.0 mph 70% 0.00 in
11:14 34.6 °F 26.2 °F 30.20 in SW 6.0 mph 9.0 mph 71% 0.00 in
11:20 34.6 °F 25.8 °F 30.20 in WSW 6.0 mph 12.0 mph 70% 0.00 in
11:25 34.8 °F 26.4 °F 30.20 in WSW 4.0 mph 11.0 mph 71% 0.00 in
11:29 35.1 °F 26.3 °F 30.20 in WSW 6.0 mph 11.0 mph 70% 0.00 in
11:34 35.7 °F 27.2 °F 30.21 in WSW 5.0 mph 11.0 mph 71% 0.00 in
11:39 35.5 °F 26.7 °F 30.21 in WSW 5.0 mph 12.0 mph 70% 0.00 in
11:44 35.5 °F 27.4 °F 30.20 in WSW 7.0 mph 10.0 mph 72% 0.00 in
11:49 35.7 °F 27.2 °F 30.20 in SSE 5.0 mph 11.0 mph 71% 0.00 in
11:54 35.8 °F 27.7 °F 30.20 in SW 6.0 mph 10.0 mph 72% 0.00 in
11:59 36.3 °F 27.8 °F 30.20 in SW 11.0 mph 12.0 mph 71% 0.00 in
12:04 36.4 °F 27.5 °F 30.20 in SW 6.0 mph 12.0 mph 70% 0.00 in
12:09 37.0 °F 27.4 °F 30.20 in SW 7.0 mph 15.0 mph 68% 0.00 in
12:14 36.8 °F 27.2 °F 30.20 in SW 3.0 mph 16.0 mph 68% 0.00 in
12:19 37.2 °F 27.6 °F 30.20 in WSW 13.0 mph 15.0 mph 68% 0.00 in
12:24 37.0 °F 27.8 °F 30.20 in West 5.0 mph 13.0 mph 69% 0.00 in
12:29 36.9 °F 28.0 °F 30.20 in SW 2.0 mph 14.0 mph 70% 0.00 in
12:34 37.0 °F 28.1 °F 30.19 in SW 8.0 mph 16.0 mph 70% 0.00 in
12:39 36.6 °F 28.1 °F 30.20 in WSW 8.0 mph 16.0 mph 71% 0.00 in
12:44 36.4 °F 27.9 °F 30.19 in WSW 7.0 mph 14.0 mph 71% 0.00 in
12:49 36.9 °F 28.7 °F 30.20 in SW 6.0 mph 12.0 mph 72% 0.00 in
12:54 37.6 °F 29.0 °F 30.20 in WSW 3.0 mph 8.0 mph 71% 0.00 in
12:59 37.2 °F 28.0 °F 30.20 in SW 5.0 mph 12.0 mph 69% 0.00 in
13:04 37.2 °F 28.3 °F 30.20 in SW 11.0 mph 14.0 mph 70% 0.00 in
13:09 36.9 °F 28.4 °F 30.20 in WSW 7.0 mph 14.0 mph 71% 0.00 in
13:14 36.7 °F 28.5 °F 30.20 in WSW 5.0 mph 14.0 mph 72% 0.00 in
13:19 37.1 °F 28.2 °F 30.20 in SW 12.0 mph 14.0 mph 70% 0.00 in
13:24 37.3 °F 28.4 °F 30.20 in West 2.0 mph 13.0 mph 70% 0.00 in
13:29 37.9 °F 28.6 °F 30.20 in West 6.0 mph 13.0 mph 69% 0.00 in
13:35 37.3 °F 28.8 °F 30.20 in West 6.0 mph 12.0 mph 71% 0.00 in
13:39 36.7 °F 28.5 °F 30.20 in WSW 6.0 mph 12.0 mph 72% 0.00 in
13:44 36.2 °F 28.4 °F 30.20 in WSW 6.0 mph 12.0 mph 73% 0.00 in
13:49 37.2 °F 29.3 °F 30.20 in WSW 6.0 mph 12.0 mph 73% 0.00 in
13:54 37.3 °F 29.1 °F 30.19 in WSW 6.0 mph 13.0 mph 72% 0.00 in
13:59 36.7 °F 28.5 °F 30.19 in WSW 7.0 mph 13.0 mph 72% 0.00 in
14:05 36.7 °F 28.9 °F 30.19 in WSW 6.0 mph 12.0 mph 73% 0.00 in
14:09 37.0 °F 28.8 °F 30.19 in SW 6.0 mph 12.0 mph 72% 0.00 in
14:14 37.1 °F 28.6 °F 30.20 in SW 7.0 mph 12.0 mph 71% 0.00 in
14:19 37.5 °F 28.9 °F 30.20 in NW 10.0 mph 12.0 mph 71% 0.00 in
14:24 37.1 °F 28.2 °F 30.20 in West 8.0 mph 18.0 mph 70% 0.00 in
14:29 36.9 °F 28.0 °F 30.20 in West 5.0 mph 15.0 mph 70% 0.00 in
14:34 36.9 °F 28.0 °F 30.20 in WSW 5.0 mph 13.0 mph 70% 0.00 in
14:39 37.1 °F 28.6 °F 30.21 in WSW 4.0 mph 15.0 mph 71% 0.00 in
14:44 37.3 °F 28.8 °F 30.21 in WSW 6.0 mph 15.0 mph 71% 0.00 in
14:49 37.4 °F 28.5 °F 30.21 in WSW 5.0 mph 12.0 mph 70% 0.00 in
14:54 37.5 °F 28.9 °F 30.21 in WSW 6.0 mph 13.0 mph 71% 0.00 in
14:59 37.2 °F 29.0 °F 30.21 in West 4.0 mph 13.0 mph 72% 0.00 in
15:05 37.3 °F 28.8 °F 30.22 in WSW 6.0 mph 13.0 mph 71% 0.00 in
15:09 37.3 °F 28.8 °F 30.22 in SW 5.0 mph 13.0 mph 71% 0.00 in
15:14 36.9 °F 28.7 °F 30.22 in SW 6.0 mph 11.0 mph 72% 0.00 in
15:20 36.8 °F 28.6 °F 30.23 in SW 10.0 mph 14.0 mph 72% 0.00 in
15:24 36.5 °F 28.3 °F 30.23 in SW 7.0 mph 14.0 mph 72% 0.00 in
15:29 36.4 °F 28.6 °F 30.23 in SW 8.0 mph 13.0 mph 73% 0.00 in
15:34 36.4 °F 28.6 °F 30.23 in SW 2.0 mph 11.0 mph 73% 0.00 in
15:39 36.4 °F 28.6 °F 30.24 in SW 5.0 mph 12.0 mph 73% 0.00 in
15:44 36.2 °F 28.4 °F 30.24 in South 4.0 mph 13.0 mph 73% 0.00 in
15:49 36.0 °F 28.5 °F 30.24 in WSW 5.0 mph 12.0 mph 74% 0.00 in
15:54 36.0 °F 28.5 °F 30.24 in SW 5.0 mph 12.0 mph 74% 0.00 in
15:59 35.9 °F 28.4 °F 30.25 in SW 5.0 mph 9.0 mph 74% 0.00 in
16:04 35.8 °F 28.3 °F 30.25 in SW 4.0 mph 9.0 mph 74% 0.00 in
16:09 35.6 °F 28.1 °F 30.25 in WSW 3.0 mph 9.0 mph 74% 0.00 in
16:14 35.6 °F 28.5 °F 30.25 in WSW 5.0 mph 9.0 mph 75% 0.00 in
16:19 35.5 °F 28.4 °F 30.25 in WSW 5.0 mph 9.0 mph 75% 0.00 in
16:24 35.3 °F 28.2 °F 30.26 in SW 4.0 mph 9.0 mph 75% 0.00 in
16:30 35.2 °F 28.4 °F 30.26 in SW 6.0 mph 11.0 mph 76% 0.00 in
16:34 35.1 °F 28.3 °F 30.27 in SSW 3.0 mph 9.0 mph 76% 0.00 in
16:39 35.0 °F 28.2 °F 30.27 in SW 4.0 mph 10.0 mph 76% 0.00 in
16:44 34.8 °F 28.3 °F 30.27 in West 3.0 mph 6.0 mph 77% 0.00 in
16:49 34.6 °F 28.1 °F 30.27 in SSW 1.0 mph 8.0 mph 77% 0.00 in
16:54 34.3 °F 28.2 °F 30.27 in SW 3.0 mph 5.0 mph 78% 0.00 in
16:59 34.2 °F 28.1 °F 30.27 in WSW 2.0 mph 7.0 mph 78% 0.00 in
17:04 34.1 °F 28.0 °F 30.27 in SW 1.0 mph 6.0 mph 78% 0.00 in
17:09 33.9 °F 28.1 °F 30.27 in SW 3.0 mph 6.0 mph 79% 0.00 in
17:14 33.7 °F 27.9 °F 30.28 in West 4.0 mph 4.0 mph 79% 0.00 in
17:19 33.6 °F 27.8 °F 30.28 in WSW 3.0 mph 4.0 mph 79% 0.00 in
17:24 33.5 °F 27.7 °F 30.28 in Calm   6.0 mph 79% 0.00 in
17:29 33.2 °F 27.7 °F 30.28 in SW 2.0 mph 6.0 mph 80% 0.00 in
17:34 33.0 °F 27.5 °F 30.29 in SW 1.0 mph 3.0 mph 80% 0.00 in
17:39 33.0 °F 27.5 °F 30.29 in SW 1.0 mph 4.0 mph 80% 0.00 in
17:44 32.5 °F 27.0 °F 30.29 in SW 1.0 mph 4.0 mph 80% 0.00 in
17:49 32.3 °F 27.1 °F 30.29 in Calm   2.0 mph 81% 0.00 in
17:54 31.8 °F 26.6 °F 30.30 in Calm     81% 0.00 in
17:59 31.5 °F 26.6 °F 30.30 in Calm     82% 0.00 in
18:04 31.2 °F 26.3 °F 30.29 in Calm     82% 0.00 in
18:09 30.8 °F 26.2 °F 30.29 in Calm     83% 0.00 in
18:14 30.7 °F 26.1 °F 30.30 in Calm     83% 0.00 in
18:19 30.5 °F 26.2 °F 30.30 in Calm     84% 0.00 in
18:24 30.7 °F 26.4 °F 30.30 in Calm     84% 0.00 in
18:29 30.7 °F 26.4 °F 30.30 in Calm     84% 0.00 in
18:34 30.6 °F 26.3 °F 30.30 in Calm     84% 0.00 in
18:39 30.3 °F 26.0 °F 30.30 in Calm     84% 0.00 in
18:44 29.8 °F 25.8 °F 30.30 in Calm     85% 0.00 in
18:49 29.7 °F 26.0 °F 30.30 in Calm     86% 0.00 in
18:54 30.1 °F 26.4 °F 30.30 in Calm     86% 0.00 in
18:59 30.0 °F 26.3 °F 30.30 in Calm     86% 0.00 in
19:04 29.6 °F 25.6 °F 30.30 in Calm     85% 0.00 in
19:09 28.9 °F 25.2 °F 30.31 in Calm     86% 0.00 in
19:14 28.6 °F 24.9 °F 30.32 in Calm     86% 0.00 in
19:19 28.3 °F 24.9 °F 30.32 in Calm     87% 0.00 in
19:24 28.1 °F 24.7 °F 30.32 in Calm     87% 0.00 in
19:29 27.7 °F 24.3 °F 30.32 in Calm     87% 0.00 in
19:34 27.5 °F 24.4 °F 30.32 in Calm     88% 0.00 in
19:39 27.3 °F 23.9 °F 30.32 in Calm     87% 0.00 in
19:44 27.3 °F 24.2 °F 30.33 in Calm     88% 0.00 in
19:49 27.6 °F 24.5 °F 30.33 in Calm     88% 0.00 in
19:54 27.3 °F 24.2 °F 30.33 in Calm     88% 0.00 in
19:59 26.8 °F 23.7 °F 30.33 in Calm     88% 0.00 in
20:04 27.1 °F 24.3 °F 30.33 in Calm     89% 0.00 in
20:09 27.2 °F 24.1 °F 30.33 in Calm     88% 0.00 in
20:14 26.9 °F 24.1 °F 30.33 in Calm     89% 0.00 in
20:19 27.2 °F 24.4 °F 30.33 in Calm     89% 0.00 in
20:24 27.5 °F 24.7 °F 30.33 in Calm     89% 0.00 in
20:29 27.0 °F 23.9 °F 30.33 in Calm     88% 0.00 in
20:34 26.7 °F 23.6 °F 30.33 in Calm     88% 0.00 in
20:39 26.3 °F 23.2 °F 30.34 in Calm     88% 0.00 in
20:44 25.9 °F 22.8 °F 30.34 in Calm     88% 0.00 in
20:49 25.8 °F 23.0 °F 30.34 in Calm     89% 0.00 in
20:54 25.9 °F 23.1 °F 30.35 in Calm     89% 0.00 in
20:59 25.8 °F 23.0 °F 30.35 in Calm     89% 0.00 in
21:04 25.9 °F 23.4 °F 30.34 in Calm     90% 0.00 in
21:09 25.9 °F 23.4 °F 30.35 in Calm     90% 0.00 in
21:14 25.8 °F 23.0 °F 30.35 in Calm     89% 0.00 in
21:19 25.8 °F 23.0 °F 30.34 in Calm     89% 0.00 in
21:24 26.1 °F 23.6 °F 30.34 in Calm     90% 0.00 in
21:29 26.4 °F 23.6 °F 30.34 in Calm     89% 0.00 in
21:34 26.3 °F 23.5 °F 30.34 in Calm     89% 0.00 in
21:39 26.1 °F 23.3 °F 30.34 in Calm     89% 0.00 in
21:44 26.0 °F 23.2 °F 30.34 in Calm     89% 0.00 in
21:49 26.0 °F 23.2 °F 30.34 in Calm     89% 0.00 in
21:54 25.9 °F 23.1 °F 30.34 in Calm     89% 0.00 in
21:59 26.1 °F 23.3 °F 30.34 in Calm     89% 0.00 in
22:04 26.4 °F 23.3 °F 30.34 in Calm     88% 0.00 in
22:09 26.5 °F 23.4 °F 30.34 in Calm     88% 0.00 in
22:14 26.5 °F 23.4 °F 30.34 in Calm     88% 0.00 in
22:19 26.4 °F 23.3 °F 30.34 in Calm     88% 0.00 in
22:24 26.5 °F 23.4 °F 30.35 in Calm     88% 0.00 in
22:29 26.4 °F 23.3 °F 30.35 in Calm     88% 0.00 in
22:34 26.3 °F 23.0 °F 30.35 in Calm   2.0 mph 87% 0.00 in
22:39 26.1 °F 22.8 °F 30.35 in Calm   2.0 mph 87% 0.00 in
22:44 26.1 °F 22.8 °F 30.35 in Calm   1.0 mph 87% 0.00 in
22:49 26.0 °F 22.4 °F 30.35 in Calm   2.0 mph 86% 0.00 in
22:54 26.0 °F 22.4 °F 30.35 in Calm     86% 0.00 in
22:59 25.7 °F 21.8 °F 30.35 in Calm     85% 0.00 in
23:04 25.7 °F 21.8 °F 30.34 in Calm     85% 0.00 in
23:09 25.6 °F 21.7 °F 30.34 in Calm     85% 0.00 in
23:14 25.5 °F 21.6 °F 30.34 in Calm     85% 0.00 in
23:19 25.7 °F 21.8 °F 30.34 in Calm   3.0 mph 85% 0.00 in
23:24 25.6 °F 21.4 °F 30.34 in Calm   3.0 mph 84% 0.00 in
23:29 25.6 °F 21.4 °F 30.34 in Calm     84% 0.00 in
23:34 25.6 °F 21.4 °F 30.34 in Calm     84% 0.00 in
23:39 25.5 °F 21.3 °F 30.34 in Calm   2.0 mph 84% 0.00 in
23:44 25.4 °F 21.0 °F 30.34 in Calm     83% 0.00 in
23:49 25.5 °F 21.1 °F 30.34 in Calm   3.0 mph 83% 0.00 in
23:54 25.5 °F 21.1 °F 30.34 in ESE 1.0 mph 2.0 mph 83% 0.00 in
23:59 25.5 °F 20.8 °F 30.34 in ESE 1.0 mph 3.0 mph 82% 0.00 in
Buffalo, New York, USA
Compliments of Weather Underground - 2.5 mb